Location: Dortmund
(51.5019°N, 7.6520°E)
Time: 06:28:29
(UTC+02:00)

ISS - Pass Details

Date: 22 March 2019
Orbit: 408 x 410 km, 51.6° (Epoch: 22 April)

Event Time Altitude Azimuth Distance (km) Brightness Sun altitude
Rises 19:32:15 0° 194° (SSW) 2,325 0.1 -8.1°
Reaches altitude 10° 19:35:24 10° 161° (SSE) 1,469 -1.3 -8.6°
Maximum altitude 19:36:40 12° 138° (SE) 1,367 -1.6 -8.7°
Enters shadow 19:37:27 11° 123° (ESE) 1,408 -1.7 -8.9°
